Weather History for KALW - October, 2013

Change the Weather History Date:

Thursday, October 3, 2013

  Actual Average Record
Temperature  
Mean Temperature 50 °F -  
Max Temperature 57 °F 70 °F 89 °F (1958)
Min Temperature 44 °F 46 °F 33 °F (1964)
Degree Days  
Heating Degree Days 14    
Moisture  
Dew Point 41 °F    
Average Humidity 75    
Maximum Humidity 96    
Minimum Humidity 51    
Precipitation  
Precipitation 0.04 in - - ()
Sea Level Pressure  
Sea Level Pressure 30.27 in    
Wind  
Wind Speed 6 mph (South)    
Max Wind Speed 9 mph    
Max Gust Speed -    
Visibility 10 miles    
Events Rain    
Averages and records for this station are not official NWS values.
T = Trace of Precipitation, MM = Missing Value Source: NWS Daily Summary

Daily Weather History Graph

Daily Weather History Graph

Search for Another Location

Airport or City:

Trip Planner

Search our weather history database for the weather conditions in past years. The results will help you decide how hot, cold, wet, or windy it might be!

Date:

Astronomy

Oct. 03, 2013 Rise Set
Actual Time 6:54 AM PDT 6:28 PM PDT
Civil Twilight 6:24 AM PDT 6:58 PM PDT
Nautical Twilight 5:50 AM PDT 7:33 PM PDT
Astronomical Twilight 5:14 AM PDT 8:08 PM PDT
Moon 5:30 AM PDT (10/3) 5:40 PM PDT (10/3)
Length of Visible Light 12h 33m
Length of Day
11h 34m
Waning Crescent, 2% of the Moon is Illuminated
Oct 3
Waning Crescent
Oct 4
New
Oct 11
First Quarter
Oct 18
Full
Oct 26
Last Quarter

Hourly Weather History & Observations

Time (PDT) Temp. Windchill Dew Point Humidity Pressure Visibility Wind Dir Wind Speed Gust Speed Precip Events Conditions
12:53 AM 48.0 °F - 42.1 °F 80% 30.09 in 10.0 mi SSW 6.9 mph - N/A   Overcast
1:53 AM 48.0 °F - 42.1 °F 80% 30.12 in 10.0 mi SW 3.5 mph - N/A   Overcast
2:10 AM 48.2 °F - 42.8 °F 82% 30.12 in 7.0 mi SW 4.6 mph - 0.01 in Rain Light Rain
2:21 AM 46.4 °F 43.5 °F 42.8 °F 87% 30.12 in 4.0 mi SSW 5.8 mph - 0.04 in Rain Light Rain
2:53 AM 46.0 °F 43.1 °F 43.0 °F 89% 30.14 in 10.0 mi SSE 5.8 mph - 0.04 in   Overcast
3:53 AM 46.0 °F 41.9 °F 43.0 °F 89% 30.15 in 10.0 mi South 8.1 mph - N/A   Overcast
4:53 AM 45.0 °F 41.8 °F 43.0 °F 93% 30.17 in 10.0 mi SSW 5.8 mph - N/A   Overcast
5:53 AM 44.1 °F 40.8 °F 43.0 °F 96% 30.20 in 8.0 mi SSW 5.8 mph - N/A   Overcast
6:32 AM 44.6 °F 42.2 °F 42.8 °F 93% 30.20 in 10.0 mi SSW 4.6 mph - N/A   Overcast
6:53 AM 45.0 °F 43.5 °F 43.0 °F 93% 30.23 in 10.0 mi SSW 3.5 mph - N/A   Overcast
7:36 AM 44.6 °F 43.1 °F 42.8 °F 93% 30.23 in 10.0 mi SSW 3.5 mph - N/A   Overcast
7:53 AM 46.0 °F 43.9 °F 43.0 °F 89% 30.25 in 10.0 mi South 4.6 mph - N/A   Overcast
8:53 AM 46.9 °F - 41.0 °F 80% 30.27 in 10.0 mi Variable 3.5 mph - N/A   Scattered Clouds
9:01 AM 46.4 °F 44.3 °F 42.8 °F 87% 30.26 in 10.0 mi West 4.6 mph - N/A   Mostly Cloudy
9:53 AM 48.0 °F - 42.1 °F 80% 30.30 in 10.0 mi SSW 6.9 mph - N/A   Overcast
10:53 AM 48.9 °F - 42.1 °F 77% 30.31 in 10.0 mi SW 6.9 mph - N/A   Overcast
11:53 AM 50.0 °F - 42.1 °F 74% 30.32 in 10.0 mi SSW 3.5 mph - N/A   Overcast
12:03 PM 51.8 °F - 42.8 °F 71% 30.31 in 10.0 mi South 6.9 mph - N/A   Overcast
12:53 PM 53.1 °F - 42.1 °F 66% 30.32 in 10.0 mi South 9.2 mph - N/A   Mostly Cloudy
1:05 PM 53.6 °F - 42.8 °F 67% 30.31 in 10.0 mi South 9.2 mph - N/A   Mostly Cloudy
1:53 PM 55.0 °F - 41.0 °F 59% 30.31 in 10.0 mi South 8.1 mph - N/A   Mostly Cloudy
2:04 PM 55.4 °F - 41.0 °F 58% 30.30 in 10.0 mi South 9.2 mph - N/A   Mostly Cloudy
2:53 PM 55.9 °F - 39.9 °F 55% 30.32 in 10.0 mi South 4.6 mph - N/A   Scattered Clouds
3:53 PM 57.0 °F - 39.9 °F 53% 30.33 in 10.0 mi SSE 8.1 mph - N/A   Partly Cloudy
4:53 PM 57.0 °F - 39.0 °F 51% 30.34 in 10.0 mi SSE 5.8 mph - N/A   Clear
5:53 PM 57.0 °F - 39.0 °F 51% 30.35 in 10.0 mi South 5.8 mph - N/A   Clear
6:53 PM 54.0 °F - 39.0 °F 57% 30.36 in 10.0 mi SSE 5.8 mph - N/A   Clear
7:53 PM 50.0 °F - 39.0 °F 66% 30.37 in 10.0 mi ESE 8.1 mph - N/A   Clear
9:53 PM 48.0 °F - 37.9 °F 68% 30.39 in 10.0 mi ESE 9.2 mph - N/A   Clear
10:53 PM 48.0 °F - 37.9 °F 68% 30.40 in 10.0 mi ESE 8.1 mph - N/A   Clear
11:53 PM 46.9 °F - 37.9 °F 71% 30.41 in 10.0 mi ESE 8.1 mph - N/A   Clear